sat.trackr.live / text

‹ back to catalog

STARLINK-33973

NORAD 63894 · 2025-095E

PAYLOAD ACTIVE UNKNOWN

§ Identity

Operator
Country
US
Launch date
2025-05-10
Launch site
AFETR
Launch vehicle
Mass (kg)
RCS (m²)

Purposes: comms

External: N2YO · Heavens-Above · Gunter

§ Orbital elements

Epoch: 2026-09-19T02:37:53.140512Z

Period
94.27 min
Inclination
43.0012°
Eccentricity
0.0001202
Mean motion
15.27582685 rev/d
Perigee alt
482.2 km
Apogee alt
483.9 km
Semi-major
6,861.2 km
B*
2.4061e-4
RAAN
163.4742°
Arg perigee
272.6903°
Mean anomaly
87.3811°
Rev number
7,737

§ Raw data

STARLINK-339731 63894U 25095E   26262.10964283  .00006365  00000+0  24061-3 0  99972 63894  43.0012 163.4742 0001202 272.6903  87.3811 15.27582685 77374

JSON: /api/v1/satellites/63894 · /tle

For live sub-satellite position, see the globe view (requires WebGL).

§ Visibility from observer

Set your observer location to see the next 7 days of passes ≥ 10°. The values pass through the URL so the page stays shareable.

No JS? Fill the form by hand. The geolocation button needs JavaScript.